SV012 OMDB-OTHH

Flight info

Callsign SV012
Flight time N/A
Altitude 23000
Route NABI3F NABIX P699 OXARI M430 TOSNA TOSN2L
Aircraft A320/M-S/C

Departure

Time 2026-05-08 07:36
Airport Dubai International Airport (OMDB)

Arrival

Time N/A
Airport Hamad International Airport (OTHH)
Time Latitude Longitude Altitude Speed Heading
2026-05-08 07:16 25.23731 55.38298 28 ft 0 kts 301°
2026-05-08 07:27 25.23730 55.38301 51 ft 1 kts 301°
2026-05-08 07:28 25.23726 55.38308 44 ft 1 kts 301°
2026-05-08 07:28 25.23722 55.38315 48 ft 1 kts 301°
2026-05-08 07:28 25.23718 55.38322 45 ft 1 kts 301°
2026-05-08 07:28 25.23714 55.38330 45 ft 1 kts 301°
2026-05-08 07:29 25.23710 55.38337 47 ft 1 kts 301°
2026-05-08 07:29 25.23706 55.38344 49 ft 1 kts 301°
2026-05-08 07:29 25.23702 55.38351 48 ft 1 kts 301°
2026-05-08 07:29 25.23698 55.38358 49 ft 1 kts 305°
2026-05-08 07:30 25.23693 55.38365 47 ft 1 kts 311°
2026-05-08 07:30 25.23688 55.38372 48 ft 1 kts 330°
2026-05-08 07:30 25.23681 55.38375 48 ft 1 kts
2026-05-08 07:30 25.23677 55.38375 48 ft 0 kts 22°
2026-05-08 07:32 25.23686 55.38379 47 ft 7 kts 22°
2026-05-08 07:32 25.23758 55.38421 47 ft 13 kts 33°
2026-05-08 07:32 25.23861 55.38496 52 ft 22 kts 33°
2026-05-08 07:32 25.23952 55.38561 53 ft 0 kts 32°
2026-05-08 07:33 25.23977 55.38579 55 ft 16 kts 32°
2026-05-08 07:33 25.24148 55.38689 53 ft 32 kts 30°
2026-05-08 07:34 25.24243 55.38687 58 ft 13 kts 300°
2026-05-08 07:34 25.24332 55.38519 53 ft 37 kts 301°
2026-05-08 07:34 25.24498 55.38220 46 ft 53 kts 301°
2026-05-08 07:34 25.24671 55.37910 40 ft 42 kts 301°
2026-05-08 07:35 25.24836 55.37671 38 ft 32 kts 320°
2026-05-08 07:35 25.24916 55.37612 38 ft 16 kts 330°
2026-05-08 07:35 25.25076 55.37496 40 ft 38 kts 317°
2026-05-08 07:35 25.25331 55.37084 32 ft 108 kts 301°
2026-05-08 07:36 25.25856 55.36162 245 ft 156 kts 303°
2026-05-08 07:36 25.26423 55.35152 1083 ft 156 kts 302°
2026-05-08 07:36 25.27023 55.34090 1944 ft 172 kts 301°
2026-05-08 07:36 25.27695 55.32902 2866 ft 194 kts 300°
2026-05-08 07:37 25.28462 55.31534 3455 ft 227 kts 301°
2026-05-08 07:37 25.29128 55.29931 3702 ft 230 kts 281°
2026-05-08 07:37 25.29054 55.28195 3805 ft 229 kts 253°
2026-05-08 07:37 25.28396 55.26589 3839 ft 232 kts 246°
2026-05-08 07:38 25.27702 55.24993 3831 ft 230 kts 246°
2026-05-08 07:38 25.26999 55.23373 3833 ft 232 kts 246°
2026-05-08 07:38 25.26305 55.21766 3831 ft 232 kts 246°
2026-05-08 07:38 25.25612 55.20150 3834 ft 232 kts 246°
2026-05-08 07:39 25.24923 55.18536 3831 ft 231 kts 246°
2026-05-08 07:39 25.24274 55.16925 3836 ft 233 kts 253°
2026-05-08 07:39 25.23875 55.15176 3828 ft 233 kts 263°
2026-05-08 07:39 25.23645 55.13354 3837 ft 258 kts 263°
2026-05-08 07:40 25.23388 55.11391 3831 ft 262 kts 263°
2026-05-08 07:40 25.23117 55.09392 3836 ft 263 kts 262°
2026-05-08 07:40 25.22841 55.07395 3835 ft 263 kts 262°
2026-05-08 07:40 25.22565 55.05398 3839 ft 263 kts 262°
2026-05-08 07:41 25.22289 55.03399 3838 ft 263 kts 262°
2026-05-08 07:41 25.22106 55.02075 3844 ft 262 kts 262°
2026-05-08 07:41 25.21832 55.00092 3963 ft 261 kts 262°
2026-05-08 07:41 25.21555 54.98091 4393 ft 263 kts 262°
2026-05-08 07:42 25.21186 54.95410 5173 ft 269 kts 262°
2026-05-08 07:42 25.21041 54.94046 5571 ft 270 kts 266°
2026-05-08 07:42 25.20896 54.91959 6171 ft 275 kts 266°
2026-05-08 07:42 25.20748 54.89843 6748 ft 277 kts 266°
2026-05-08 07:43 25.20596 54.87711 7325 ft 279 kts 265°
2026-05-08 07:43 25.20442 54.85564 7918 ft 282 kts 265°
2026-05-08 07:43 25.20286 54.83401 8515 ft 286 kts 265°
2026-05-08 07:43 25.20127 54.81199 9127 ft 289 kts 265°
2026-05-08 07:44 25.19967 54.78974 9765 ft 291 kts 264°
2026-05-08 07:44 25.19819 54.76709 10605 ft 302 kts 266°
2026-05-08 07:44 25.19901 54.74335 11555 ft 316 kts 272°
2026-05-08 07:44 25.20055 54.71893 12530 ft 327 kts 271°
2026-05-08 07:45 25.20213 54.69332 13538 ft 338 kts 270°
2026-05-08 07:45 25.20368 54.66700 14466 ft 347 kts 271°
2026-05-08 07:45 25.20522 54.64030 15403 ft 355 kts 271°
2026-05-08 07:45 25.20680 54.61277 16376 ft 362 kts 271°
2026-05-08 07:46 25.20840 54.58465 17380 ft 367 kts 272°
2026-05-08 07:46 25.21001 54.55623 18377 ft 371 kts 272°
2026-05-08 07:46 25.21286 54.52779 19284 ft 376 kts 278°
2026-05-08 07:46 25.21892 54.49985 20209 ft 379 kts 284°
2026-05-08 07:47 25.22612 54.47187 21172 ft 380 kts 283°
2026-05-08 07:47 25.23330 54.44363 22078 ft 384 kts 283°
2026-05-08 07:47 25.24059 54.41465 22553 ft 399 kts 283°